Wind_Speed
38 39 39 38 38 38 39 40 40 40 41 41 42 42 42 42 42 43 44 43 43 43 42 42 42 43 43 43 44 44 44 44 44 43 43 41 41 41 41 41 41 41 41
36 37 37 37 37 38 38 39 40 40 41 41 41 42 43 43 43 43 44 44 43 43 43 42 42 42 43 44 44 45 44 44 44 43 43 43 42 42 41 41 41 41 41
33 34 35 36 37 37 38 39 39 39 40 40 40 41 41 41 41 42 42 43 43 44 44 44 43 43 43 43 44 43 44 45 45 44 45 44 43 42 43 42 42 42 43
33 34 35 36 37 37 37 37 38 38 39 39 39 39 39 40 40 40 40 41 42 43 43 44 45 45 44 43 43 43 44 44 44 44 45 45 44 43 42 42 42 41 41
30 32 34 35 35 35 35 36 36 37 37 38 38 38 37 38 38 39 38 39 40 41 41 42 43 44 44 43 43 43 43 44 44 44 44 45 44 43 43 42 41 41 42
28 30 31 33 33 34 34 35 36 36 36 36 36 36 36 37 37 38 38 37 37 39 40 40 41 42 42 42 41 42 42 42 42 43 43 44 44 45 45 44 43 43 43
25 27 28 29 31 32 33 33 34 35 35 35 35 35 36 36 36 37 37 36 36 37 38 38 39 40 41 42 40 40 40 41 41 41 43 44 45 45 44 44 44 44 43
22 23 25 26 28 29 31 32 33 34 34 34 35 35 35 35 36 36 35 35 35 35 36 37 37 38 39 39 39 39 40 40 41 41 42 43 43 43 43 43 43 43 43
20 21 22 24 26 27 28 30 30 31 32 33 34 34 35 35 35 35 33 33 33 33 34 35 36 37 37 37 38 38 39 39 39 40 40 41 41 42 42 43 43 43 43
18 19 21 23 24 26 27 28 29 29 30 32 32 33 33 34 34 34 33 33 32 32 33 33 35 36 36 37 37 37 36 36 36 37 38 39 40 40 41 42 42 42 42
18 19 20 22 23 24 25 26 27 29 30 31 32 32 33 33 33 34 34 34 34 34 34 34 34 34 34 35 36 36 36 36 36 36 36 38 39 39 40 41 40 41 41
19 20 20 21 22 23 23 24 25 26 27 28 29 30 31 31 31 32 32 33 33 33 33 32 32 32 33 34 35 35 35 35 35 35 36 36 36 37 37 38 38 39 38
19 20 20 20 20 21 22 22 23 23 25 25 26 26 27 28 28 29 29 30 30 31 31 31 31 31 31 31 32 33 34 34 34 34 34 35 35 35 36 37 37 37 38
20 20 20 20 19 19 20 20 21 21 21 22 22 23 24 25 26 27 28 28 29 29 29 29 30 30 29 30 30 31 31 32 33 33 33 33 34 35 36 36 36 36 38
20 20 20 19 19 18 18 19 19 19 20 20 21 22 23 24 24 25 25 26 27 27 26 27 28 28 28 28 29 29 30 30 31 31 32 32 33 33 34 35 36 37 38
20 20 20 19 19 18 19 19 19 19 19 20 20 20 21 22 22 23 24 24 25 26 26 26 26 26 26 27 27 28 28 29 29 30 30 30 31 32 33 34 35 36 38
21 21 20 20 20 20 20 19 19 19 19 19 19 19 19 20 21 21 22 23 24 25 25 25 25 26 26 26 26 27 27 28 29 29 29 30 30 32 33 33 34 36 36
21 21 21 21 20 20 20 19 19 18 18 18 18 18 18 19 19 21 22 22 23 23 23 24 24 24 24 25 26 27 28 29 29 29 30 30 30 31 32 33 34 35 36
22 22 22 22 21 21 21 20 19 19 19 19 19 19 19 20 21 21 22 23 23 23 23 23 22 23 24 25 26 27 28 28 28 29 30 30 31 32 33 34 35 35 37
23 22 22 22 22 22 22 22 22 21 21 21 22 22 22 23 23 23 23 23 23 23 23 23 23 24 24 25 26 27 27 28 29 30 30 31 32 32 34 35 36 37 38
26 25 24 24 24 23 23 23 23 23 23 23 23 24 25 25 25 25 25 25 25 25 25 25 26 26 26 27 27 28 28 29 30 30 31 33 33 34 34 36 37 37 38
28 27 27 26 25 25 24 23 24 25 24 24 24 25 25 25 25 26 26 25 26 26 27 27 27 28 28 29 29 29 29 30 30 31 32 33 34 35 35 36 38 38 39
29 29 28 27 27 27 26 24 24 25 25 25 25 26 26 26 26 27 27 27 27 28 29 29 29 30 31 31 31 31 31 32 32 33 34 34 35 36 37 37 38 38 39
31 30 30 28 28 28 27 27 27 27 27 27 27 28 28 28 28 28 29 29 30 30 31 30 31 32 33 33 32 33 33 34 34 34 35 36 36 36 37 37 38 38 38
33 32 31 30 30 30 28 28 28 28 28 28 28 29 30 30 29 29 30 31 31 31 31 32 33 33 33 33 34 34 34 34 35 35 36 36 36 37 37 38 38 38 38
33 33 33 32 32 32 31 30 30 30 30 30 30 30 31 32 32 31 31 32 33 33 34 34 34 33 34 34 35 35 35 35 36 36 37 37 37 38 38 38 39 39 39
Wind_Direction
251 252 252 252 253 253 254 254 254 253 253 253 253 253 252 253 254 255 255 255 254 254 254 255 256 257 258 259 260 260 261 263 265 267 267 267 268 271 273 275 276 278 280
252 252 252 252 253 253 254 254 254 254 254 254 254 253 253 253 254 255 254 255 254 255 255 256 257 258 258 259 259 261 262 263 264 266 267 268 269 270 272 274 276 277 278
254 254 254 253 253 253 254 254 254 254 253 253 254 254 254 254 254 254 253 253 253 253 255 255 256 258 259 259 260 261 262 262 264 264 266 267 267 268 269 271 274 276 277
256 256 255 254 254 253 253 253 253 253 253 254 255 255 254 253 253 253 252 253 253 254 255 255 256 257 258 259 261 261 262 262 263 264 265 266 267 268 269 270 272 275 277
260 258 256 254 254 253 253 253 253 253 254 255 255 254 254 253 254 253 253 254 254 254 255 256 256 256 257 259 261 263 264 263 263 265 266 266 266 267 269 270 273 276 278
261 260 258 255 254 253 254 255 254 254 254 254 254 254 255 255 255 254 254 255 256 256 257 258 258 257 257 259 261 263 263 263 264 265 265 266 267 268 270 271 273 275 278
262 260 259 257 255 254 254 255 255 255 254 254 254 255 256 255 254 254 255 257 258 257 258 259 259 259 258 259 261 261 262 263 265 266 266 267 269 269 271 272 274 275 277
265 262 259 258 257 256 255 255 256 255 255 255 255 254 254 254 254 254 256 258 257 257 259 260 260 260 260 260 260 262 263 264 264 267 268 269 269 270 272 275 277 278 279
267 263 262 261 258 256 255 255 255 256 255 255 254 254 254 253 253 254 256 258 258 259 261 262 261 261 260 260 261 263 265 267 266 266 267 268 270 272 275 278 280 280 280
271 270 267 266 262 260 259 259 258 257 257 256 254 254 255 254 254 254 255 257 259 261 262 262 262 262 262 262 262 263 265 267 266 266 268 269 272 274 277 279 280 280 281
274 274 273 270 267 263 262 262 261 260 259 259 257 256 254 253 253 254 255 256 258 260 262 263 263 263 262 262 262 264 265 266 267 269 271 272 273 275 278 279 280 281 282
279 277 277 274 271 268 266 265 263 262 261 260 259 258 256 255 255 255 255 256 257 258 259 261 261 262 261 262 263 264 265 266 267 270 272 273 275 277 277 279 280 282 283
282 280 279 277 273 270 267 266 265 264 261 260 258 256 254 253 254 254 255 254 255 257 259 260 261 262 262 263 264 265 267 267 268 270 272 273 275 276 278 280 282 283 285
282 281 281 278 275 273 269 267 266 265 263 261 258 255 253 252 253 255 256 257 257 258 261 260 260 262 262 263 266 267 268 268 269 270 272 273 274 277 280 282 284 285 287
283 282 280 278 275 274 272 268 268 268 266 263 260 257 255 254 255 256 256 256 257 256 260 260 260 260 262 264 266 266 268 269 270 271 273 275 277 281 282 284 285 286 289
281 283 281 277 275 274 272 270 269 269 267 264 260 258 256 255 255 255 256 256 256 257 259 259 260 262 264 265 266 267 268 269 270 272 274 276 278 282 285 286 288 289 290
280 280 280 278 275 274 272 271 270 269 268 265 260 259 257 256 256 258 259 260 260 259 259 259 263 264 264 263 265 268 269 270 271 272 275 277 281 283 285 288 289 291 292
280 279 279 278 275 274 272 270 270 268 267 266 262 259 258 258 258 259 260 262 263 262 261 263 265 265 264 264 267 268 270 271 271 273 277 279 281 283 285 288 291 293 294
279 278 278 277 274 272 270 269 269 268 267 266 265 262 260 260 261 262 263 264 264 262 262 263 265 267 267 267 269 270 272 272 273 277 279 280 283 285 288 290 291 294 296
278 278 277 275 274 272 269 268 269 269 268 266 266 266 264 263 263 263 263 264 264 263 262 263 266 269 270 270 271 273 274 273 276 279 280 282 284 286 289 291 292 294 297
275 275 276 274 273 273 271 267 267 268 267 266 268 268 266 264 264 263 262 263 263 263 263 265 268 270 272 272 273 274 274 276 279 280 282 284 285 287 290 292 293 295 298
271 272 272 272 273 273 272 268 266 267 266 267 267 267 266 265 264 263 263 264 264 265 265 267 269 271 272 271 274 275 277 280 281 283 284 286 287 288 291 293 294 297 298
269 270 270 271 271 272 271 268 267 267 266 266 267 267 266 265 264 264 264 265 266 267 267 267 269 272 273 274 274 276 279 281 282 284 287 288 289 290 292 294 296 298 299
269 269 268 269 270 271 269 268 268 268 267 266 266 266 267 267 266 265 265 266 267 266 266 268 270 272 272 273 275 278 280 282 283 285 287 289 291 292 293 294 296 298 299
267 268 267 267 268 269 269 268 268 269 269 268 268 267 267 266 266 266 265 267 268 268 268 269 271 271 272 274 275 278 280 282 283 285 287 289 292 293 294 295 297 298 299
267 267 266 265 265 266 268 267 267 268 269 269 269 269 269 267 265 266 267 269 270 271 270 271 271 272 274 275 278 279 281 282 284 285 287 289 291 293 293 294 295 296 298
Height
5715 5716 5718 5719 5721 5722 5724 5726 5728 5730 5732 5734 5737 5739 5742 5744 5747 5749 5751 5752 5754 5757 5759 5762 5764 5766 5768 5769 5771 5772 5774 5775 5776 5776 5777 5778 5779 5780 5780 5780 5780 5779 5778
5707 5708 5709 5711 5712 5714 5716 5718 5720 5721 5723 5725 5727 5730 5732 5735 5737 5739 5741 5743 5745 5747 5749 5752 5754 5756 5757 5759 5761 5762 5764 5765 5766 5767 5768 5769 5770 5771 5771 5771 5770 5770 5769
5700 5701 5701 5703 5704 5706 5707 5709 5711 5713 5714 5716 5719 5720 5722 5725 5727 5729 5731 5732 5734 5737 5740 5742 5745 5746 5747 5749 5751 5752 5754 5755 5756 5757 5758 5759 5761 5761 5762 5762 5761 5761 5760
5693 5693 5694 5695 5696 5698 5699 5701 5703 5704 5706 5708 5710 5712 5713 5715 5717 5719 5720 5722 5724 5727 5729 5732 5734 5736 5737 5739 5741 5742 5743 5745 5746 5747 5748 5749 5750 5751 5752 5753 5752 5751 5751
5686 5686 5686 5687 5688 5690 5692 5693 5695 5696 5698 5699 5701 5703 5704 5706 5708 5709 5711 5713 5715 5717 5720 5722 5724 5726 5728 5729 5730 5732 5733 5735 5736 5737 5738 5738 5739 5740 5741 5743 5743 5742 5741
5679 5679 5679 5680 5681 5683 5684 5685 5687 5688 5690 5691 5693 5694 5696 5697 5699 5701 5703 5704 5706 5708 5711 5713 5714 5716 5718 5719 5721 5722 5723 5725 5726 5727 5728 5729 5730 5731 5731 5732 5733 5732 5731
5673 5673 5673 5673 5674 5676 5677 5678 5679 5680 5681 5683 5684 5686 5687 5688 5690 5693 5695 5696 5698 5700 5702 5704 5705 5707 5709 5710 5712 5713 5714 5715 5717 5718 5718 5719 5720 5721 5721 5722 5722 5722 5722
5667 5667 5667 5667 5668 5669 5670 5671 5671 5672 5673 5674 5676 5677 5678 5680 5682 5685 5687 5689 5690 5692 5694 5695 5697 5698 5700 5701 5702 5704 5705 5706 5707 5708 5709 5710 5710 5711 5711 5711 5711 5711 5711
5662 5662 5661 5661 5661 5662 5663 5663 5664 5664 5665 5666 5667 5669 5670 5672 5674 5676 5679 5681 5683 5685 5686 5688 5689 5690 5691 5693 5694 5695 5697 5697 5698 5699 5699 5700 5700 5701 5701 5700 5700 5699 5699
5657 5657 5656 5655 5655 5655 5656 5656 5656 5657 5657 5658 5659 5661 5662 5664 5666 5669 5671 5673 5675 5677 5678 5680 5681 5682 5683 5685 5686 5688 5688 5689 5689 5690 5690 5691 5691 5691 5691 5690 5689 5688 5687
5653 5652 5651 5650 5649 5649 5649 5649 5649 5650 5650 5651 5652 5653 5655 5656 5659 5661 5664 5666 5667 5669 5671 5672 5673 5674 5675 5677 5678 5679 5680 5681 5681 5681 5681 5682 5682 5681 5681 5679 5678 5677 5676
5648 5647 5646 5645 5644 5643 5643 5643 5643 5643 5643 5643 5644 5645 5647 5649 5652 5654 5656 5658 5660 5661 5663 5664 5665 5666 5667 5668 5669 5671 5671 5672 5672 5673 5673 5673 5672 5672 5671 5670 5668 5667 5665
5644 5642 5640 5639 5638 5637 5637 5637 5636 5636 5636 5637 5637 5639 5640 5642 5645 5647 5649 5650 5652 5653 5655 5656 5657 5658 5659 5660 5661 5662 5663 5663 5664 5664 5664 5664 5664 5663 5662 5660 5659 5657 5655
5638 5637 5635 5634 5633 5632 5631 5631 5631 5631 5631 5631 5632 5633 5634 5636 5638 5640 5642 5643 5645 5646 5647 5648 5650 5651 5652 5653 5653 5654 5654 5655 5655 5656 5655 5655 5655 5654 5652 5651 5649 5647 5645
5633 5631 5630 5629 5628 5627 5627 5626 5626 5625 5625 5625 5626 5627 5628 5630 5631 5633 5634 5636 5638 5639 5640 5641 5642 5643 5644 5645 5646 5646 5647 5647 5647 5647 5647 5647 5646 5645 5643 5641 5639 5637 5635
5628 5626 5625 5624 5623 5622 5622 5621 5621 5620 5620 5620 5621 5621 5622 5623 5625 5627 5628 5629 5631 5632 5634 5635 5636 5636 5637 5638 5639 5639 5639 5639 5640 5639 5639 5638 5637 5636 5634 5632 5630 5627 5624
5622 5621 5620 5619 5618 5617 5617 5616 5616 5616 5616 5616 5616 5617 5617 5618 5620 5621 5622 5623 5624 5625 5627 5628 5629 5629 5630 5631 5631 5631 5632 5632 5632 5631 5631 5630 5629 5627 5625 5623 5620 5617 5614
5617 5616 5615 5614 5613 5612 5612 5611 5611 5611 5611 5611 5612 5612 5612 5613 5614 5615 5616 5617 5618 5619 5620 5621 5622 5623 5623 5624 5624 5624 5624 5624 5624 5623 5622 5621 5620 5618 5616 5614 5611 5608 5604
5611 5610 5609 5608 5608 5607 5607 5606 5606 5606 5606 5606 5607 5607 5608 5608 5609 5610 5611 5611 5612 5613 5614 5615 5615 5616 5616 5616 5616 5616 5616 5616 5615 5615 5614 5613 5611 5609 5607 5604 5602 5599 5595
5605 5604 5604 5603 5602 5601 5601 5601 5601 5601 5601 5601 5601 5601 5602 5602 5603 5604 5605 5605 5606 5607 5607 5608 5609 5609 5609 5609 5609 5609 5609 5608 5607 5606 5605 5603 5602 5599 5596 5594 5591 5589 5585
5599 5598 5597 5596 5595 5595 5595 5594 5594 5594 5594 5594 5595 5595 5595 5596 5596 5597 5598 5598 5599 5600 5600 5601 5602 5602 5602 5602 5601 5601 5601 5600 5599 5597 5596 5594 5592 5589 5587 5584 5581 5578 5575
5591 5591 5590 5590 5589 5588 5588 5588 5588 5587 5587 5588 5588 5588 5588 5589 5589 5590 5591 5591 5592 5592 5593 5593 5594 5594 5594 5593 5593 5593 5592 5591 5590 5588 5586 5584 5582 5579 5577 5574 5571 5568 5564
5583 5582 5582 5582 5582 5581 5581 5581 5581 5580 5581 5581 5581 5581 5581 5581 5582 5582 5583 5583 5584 5584 5585 5585 5585 5585 5585 5585 5584 5584 5583 5582 5581 5579 5577 5575 5572 5569 5566 5564 5560 5557 5554
5574 5574 5574 5574 5574 5573 5573 5574 5573 5573 5573 5573 5573 5573 5573 5574 5574 5575 5575 5575 5575 5576 5576 5576 5576 5576 5576 5575 5575 5574 5573 5572 5570 5569 5567 5564 5562 5559 5556 5553 5550 5547 5544
5564 5564 5565 5565 5565 5565 5565 5565 5565 5565 5565 5565 5565 5565 5565 5565 5565 5566 5566 5566 5566 5566 5567 5567 5567 5566 5566 5566 5565 5564 5564 5562 5560 5558 5556 5554 5552 5549 5546 5543 5540 5537 5533
5554 5554 5555 5556 5556 5556 5556 5556 5556 5556 5556 5556 5556 5556 5556 5556 5556 5557 5557 5557 5557 5557 5557 5557 5557 5557 5557 5556 5555 5554 5553 5552 5550 5548 5546 5544 5541 5538 5535 5532 5529 5526 5523